FW8630 Weather Reports


Display with metric or nautical units.
time (UTC)temp
F
wind
direction
speed
MPH
gust
MPH
rain 1hr
in
rain 24hr
in
rain mn
in
humidity
%
barometer
mb
20260504224550 43 183 0.0 0.0 0.00 0.00 0.00 96 1009.3
20260504223053 44 183 0.0 1.0 0.00 0.00 0.00 95 1009.4
20260504221548 45 183 2.0 5.0 0.00 0.00 0.00 95 1009.6
20260504214543 46 182 0.0 2.0 0.00 0.00 0.00 94 1009.4
20260504213045 47 184 1.0 4.0 0.00 0.00 0.00 94 1009.4
20260504211541 47 207 2.0 4.0 0.00 0.00 0.00 94 1009.3
20260504210040 48 229 0.0 3.0 0.00 0.00 0.00 93 1009.2
20260504204557 49 268 1.0 5.0 0.00 0.00 0.00 92 1009.2
20260504203041 49 274 1.0 4.0 0.00 0.00 0.00 92 1009.1
20260504201538 50 264 2.0 7.0 0.00 0.00 0.00 92 1008.9
20260504200043 50 279 5.0 10.0 0.00 0.00 0.00 91 1008.9
20260504194542 51 274 4.0 12.0 0.00 0.00 0.00 87 1008.8
20260504193038 51 224 8.0 15.0 0.00 0.00 0.00 87 1008.2
20260504191540 51 227 6.0 11.0 0.00 0.00 0.00 90 1008.2
20260504190039 50 219 4.0 8.0 0.00 0.00 0.00 90 1008.1
20260504184537 51 205 4.0 11.0 0.00 0.00 0.00 89 1007.9
20260504183036 50 223 5.0 9.0 0.00 0.00 0.00 92 1007.8
20260504181534 51 205 6.0 11.0 0.00 0.00 0.00 92 1007.6
20260504180034 53 224 7.0 14.0 0.00 0.00 0.00 89 1007.6
20260504174533 55 213 6.0 14.0 0.00 0.00 0.00 89 1007.4
20260504173033 55 215 7.0 14.0 0.00 0.00 0.00 88 1007.3
20260504171534 56 185 7.0 16.0 0.00 0.00 0.00 88 1007.3
20260504100104 49 237 5.0 9.0 0.00 0.00 0.00 86 1007.7
20260504081552 49 257 4.0 11.0 0.00 0.00 0.00 85 1006.8
20260504050021 48 125 0.0 3.0 0.00 0.00 0.00 89 1006.1
20260504044520 47 126 0.0 2.0 0.00 0.00 0.00 90 1006.2
20260504043031 47 126 1.0 3.0 0.00 0.00 0.00 90 1006.0
20260504041512 47 127 0.0 3.0 0.00 0.00 0.00 91 1006.8
20260504033002 47 126 1.0 2.0 0.00 0.00 0.00 95 1007.5
20260504031603 47 126 2.0 4.0 0.00 0.00 0.00 95 1007.3
20260504021556 46 142 1.0 4.0 0.00 0.00 0.00 93 1007.9
20260504020131 46 179 2.0 4.0 0.00 0.00 0.00 94 1008.6
20260504014603 46 98 1.0 6.0 0.00 0.00 0.00 94 1008.0
20260504013115 45 96 1.0 2.0 0.00 0.00 0.00 94 1008.4
20260504011552 45 97 1.0 10.0 0.00 0.00 0.00 94 1008.2
20260504010049 45 65 3.0 6.0 0.00 0.00 0.00 95 1008.4
20260504004616 45 70 2.0 6.0 0.00 0.00 0.00 95 1009.0
20260504003049 45 53 2.0 4.0 0.00 0.00 0.00 95 1009.3
20260504001615 45 134 1.0 3.0 0.00 0.00 0.00 95 1010.0
20260504000045 44 71 1.0 3.0 0.00 0.00 0.00 96 1009.4
20260503234540 44 71 1.0 3.0 0.00 0.00 0.00 97 1009.4
20260503233041 45 71 0.0 3.0 0.00 0.00 0.00 97 1009.4
20260503231536 45 71 1.0 4.0 0.00 0.00 0.00 97 1009.6
20260503230049 45 67 0.0 3.0 0.00 0.00 0.00 97 1009.7